Chicago DuPage, IL

3:50 PM CDT on August 18, 2017 (GMT -0500)
Du Page

Weather History for KDPA - October, 2012

Change the Weather History Date:

Monday, October 8, 2012

  Actual Average Record
Temperature  
Mean Temperature 44 °F 55 °F  
Max Temperature 60 °F 67 °F 87 °F (2007)
Min Temperature 27 °F 44 °F 27 °F (2012)
Degree Days  
Heating Degree Days 21 11  
Month to date heating degree days 118 76  
Since 1 July heating degree days 275 187  
Cooling Degree Days 0 1  
Month to date cooling degree days 0 8  
Year to date cooling degree days 1089 811  
Moisture  
Dew Point 28 °F    
Average Humidity 56    
Maximum Humidity 85    
Minimum Humidity 29    
Precipitation  
Precipitation 0.00 in 0.10 in 1.12 in (2004)
Month to date precipitation 0.22 0.89  
Year to date precipitation 15.79 29.81  
Sea Level Pressure  
Sea Level Pressure 30.09 in    
Wind  
Wind Speed 12 mph (South)    
Max Wind Speed 24 mph    
Max Gust Speed 32 mph    
Visibility 10 miles    
Events      
T = Trace of Precipitation, MM = Missing Value Source: NWS Daily Summary

Daily Weather History Graph

Daily Weather History Graph

Search for Another Location

Airport or City:

Trip Planner

Search our weather history database for the weather conditions in past years. The results will help you decide how hot, cold, wet, or windy it might be!

Date:

Astronomy

Oct. 08, 2012 Rise Set
Actual Time 6:58 AM CDT 6:21 PM CDT
Civil Twilight 6:30 AM CDT 6:49 PM CDT
Nautical Twilight 5:57 AM CDT 7:22 PM CDT
Astronomical Twilight 5:25 AM CDT 7:54 PM CDT
Moon No Moon Rise 2:17 PM CDT (10/8)
Length of Visible Light 12h 19m
Length of Day
11h 23m
Last Quarter, 46% of the Moon is Illuminated
Oct 8
Last Quarter
Oct 15
New
Oct 21
First Quarter
Oct 29
Full
Nov 6
Last Quarter

Hourly Weather History & Observations

Time (CDT) Temp. Windchill Dew Point Humidity Pressure Visibility Wind Dir Wind Speed Gust Speed Precip Events Conditions
12:52 AM 30.9 °F 27.5 °F 23.0 °F 72% 30.15 in 10.0 mi South 3.5 mph - N/A   Clear
1:52 AM 28.9 °F 22.8 °F 23.0 °F 78% 30.16 in 10.0 mi South 5.8 mph - N/A   Clear
2:52 AM 30.0 °F 26.5 °F 25.0 °F 82% 30.15 in 10.0 mi South 3.5 mph - N/A   Clear
3:52 AM 28.9 °F 25.2 °F 25.0 °F 85% 30.15 in 10.0 mi SSE 3.5 mph - N/A   Clear
4:52 AM 28.9 °F 25.2 °F 24.1 °F 82% 30.15 in 10.0 mi South 3.5 mph - N/A   Clear
5:52 AM 27.0 °F 20.5 °F 23.0 °F 85% 30.16 in 10.0 mi South 5.8 mph - N/A   Clear
6:52 AM 28.0 °F 21.7 °F 24.1 °F 85% 30.16 in 10.0 mi South 5.8 mph - N/A   Clear
7:52 AM 32.0 °F 26.4 °F 27.0 °F 82% 30.16 in 10.0 mi South 5.8 mph - N/A   Clear
8:52 AM 41.0 °F 35.2 °F 30.0 °F 65% 30.16 in 10.0 mi South 9.2 mph - N/A   Clear
9:52 AM 46.9 °F - 28.9 °F 50% 30.16 in 10.0 mi South 11.5 mph - N/A   Clear
10:52 AM 52.0 °F - 30.9 °F 45% 30.13 in 10.0 mi SSW 13.8 mph 19.6 mph N/A   Clear
11:52 AM 55.0 °F - 28.9 °F 37% 30.12 in 10.0 mi SSW 18.4 mph 26.5 mph N/A   Clear
12:52 PM 57.9 °F - 30.0 °F 35% 30.09 in 10.0 mi SSW 18.4 mph 26.5 mph N/A   Partly Cloudy
1:52 PM 59.0 °F - 28.0 °F 31% 30.05 in 10.0 mi SSW 21.9 mph 32.2 mph N/A   Clear
2:52 PM 59.0 °F - 27.0 °F 29% 30.04 in 10.0 mi SSW 19.6 mph 27.6 mph N/A   Clear
3:52 PM 59.0 °F - 28.0 °F 31% 30.02 in 10.0 mi SW 20.7 mph 26.5 mph N/A   Clear
4:52 PM 57.9 °F - 28.9 °F 33% 30.00 in 10.0 mi SSW 18.4 mph 25.3 mph N/A   Clear
5:52 PM 55.9 °F - 28.9 °F 36% 30.01 in 10.0 mi SSW 11.5 mph 21.9 mph N/A   Clear
7:52 PM 51.1 °F - 30.9 °F 46% 30.03 in 10.0 mi South 10.4 mph - N/A   Clear
8:52 PM 51.1 °F - 30.9 °F 46% 30.02 in 10.0 mi South 13.8 mph - N/A   Clear
9:52 PM 51.1 °F - 32.0 °F 48% 30.02 in 10.0 mi SSW 12.7 mph - N/A   Clear
10:52 PM 50.0 °F - 33.1 °F 52% 30.02 in 10.0 mi South 11.5 mph - N/A   Clear
11:52 PM 46.9 °F - 33.1 °F 59% 30.00 in 10.0 mi South 9.2 mph - N/A   Clear